Temperature
23 22 21 22 26 27 26 28 32 33 34 33 33 32 31 29 28 26 27 25 23 23 23 22 21 21 21 20 20 20 20 19 19 19 19 19 19 19 19 19 19 19 18 19 18 19 19 19 19
23 22 22 25 28 26 25 28 31 33 33 33 33 32 31 29 28 27 26 24 23 23 22 22 21 21 21 20 20 20 20 19 19 19 19 19 19 19 19 19 19 18 18 18 19 19 19 19 19
23 23 26 29 29 28 27 30 32 33 33 33 33 31 30 28 27 26 25 24 22 22 22 22 21 21 21 20 20 20 20 19 19 19 19 19 19 19 19 19 19 18 18 18 19 19 19 19 19
22 25 28 30 31 31 31 32 33 33 33 33 32 30 28 28 27 26 25 23 22 21 22 22 22 21 21 20 20 20 20 20 19 19 19 19 19 19 19 19 19 18 18 18 18 19 19 19 19
24 27 30 30 31 32 33 32 33 33 32 32 31 28 27 27 26 25 25 23 22 21 22 22 21 21 21 20 20 20 20 20 19 19 19 19 19 19 19 19 19 18 18 19 18 19 19 19 19
27 30 30 30 32 33 33 33 33 33 32 31 29 27 25 26 26 26 25 24 23 21 22 22 21 21 21 20 20 20 20 20 20 20 19 19 19 19 19 19 19 19 19 19 19 19 19 19 19
28 30 30 31 32 33 34 33 32 32 31 31 29 26 25 25 26 26 25 25 23 22 22 22 21 21 21 20 20 20 20 20 20 20 20 20 19 19 19 19 19 19 19 19 19 19 19 19 19
28 30 30 32 32 33 34 33 32 31 31 30 29 26 24 25 26 26 25 25 23 22 21 21 21 21 21 20 20 20 20 20 20 20 20 20 20 19 19 19 19 19 19 19 19 19 19 19 19
29 29 29 31 32 33 33 33 32 31 30 29 28 26 24 24 26 26 26 25 24 22 21 21 20 20 20 20 20 20 20 20 20 20 19 19 19 19 19 19 19 19 19 19 19 19 19 19 19
30 29 30 32 33 33 32 32 31 30 29 28 26 24 24 24 25 26 26 25 23 22 22 21 20 20 20 19 20 20 19 19 19 19 19 19 19 18 18 18 18 18 19 19 19 19 19 19 19
31 30 31 32 32 32 31 30 30 29 26 24 24 24 24 24 25 25 25 24 23 22 22 21 21 20 20 20 20 19 19 19 19 19 19 19 18 18 18 18 18 18 18 18 18 18 18 18 18
31 31 31 31 31 30 30 30 29 27 24 24 24 24 24 25 25 25 24 23 22 22 22 21 20 20 20 20 20 20 19 19 19 19 19 18 18 18 18 18 18 18 18 18 18 18 18 18 18
31 31 31 31 31 30 29 29 28 25 24 24 24 24 24 24 24 24 23 23 22 22 21 21 20 20 20 20 20 19 19 19 19 19 19 18 18 18 18 18 18 18 18 18 17 17 18 18 18
31 31 30 30 30 29 29 28 27 25 24 23 23 24 24 23 23 23 22 22 21 21 21 20 20 20 20 20 19 19 19 19 19 18 18 18 18 18 18 18 18 18 17 17 17 17 17 17 18
30 30 29 29 29 28 27 26 25 24 24 23 23 23 23 23 22 22 21 21 21 20 20 20 20 20 19 19 19 19 19 19 18 18 18 18 18 17 17 17 17 17 17 17 17 17 17 17 17
30 29 27 28 28 27 26 22 23 24 24 23 23 22 22 22 22 21 21 20 20 20 20 20 19 19 19 19 19 18 18 18 18 18 18 17 17 17 17 17 17 17 17 17 17 17 17 16 16
29 28 27 26 27 26 24 22 22 23 23 23 23 22 22 21 21 20 20 20 20 20 19 19 19 19 19 19 19 18 18 18 18 18 17 17 17 17 17 17 16 16 16 16 16 16 16 16 16
29 29 27 26 27 26 24 22 22 23 23 24 23 22 21 21 21 21 20 20 20 20 19 19 19 19 19 19 19 18 18 18 18 18 17 17 17 16 17 16 16 16 16 16 16 16 16 16 16
30 29 27 26 27 26 25 23 23 23 23 24 23 22 21 21 21 20 20 20 19 19 19 19 19 19 19 18 18 18 18 18 18 18 17 17 16 16 16 16 16 16 16 16 16 15 15 15 16
30 28 27 26 27 26 25 24 24 24 25 24 23 23 22 22 21 21 20 20 20 19 19 19 19 19 18 18 18 18 18 18 18 17 17 17 16 16 16 16 16 15 15 15 15 15 15 15 15
29 28 28 27 27 26 25 24 24 24 25 24 23 23 22 22 21 21 21 20 20 19 19 19 19 18 18 18 18 18 17 18 17 17 17 16 16 16 15 15 15 15 15 15 15 15 15 15 15
29 30 29 27 25 23 23 23 24 24 24 24 24 24 23 23 22 22 21 21 20 20 19 19 18 18 18 18 18 17 17 17 17 17 17 16 16 15 15 15 14 14 14 14 14 14 14 14 14
29 29 28 26 24 23 23 23 24 24 24 25 25 25 24 23 23 22 22 21 21 20 20 19 18 18 18 18 17 17 17 17 17 16 16 16 15 15 15 15 14 14 14 14 13 14 14 14 14
30 28 25 24 22 21 23 24 23 24 25 26 26 25 24 24 23 23 22 22 21 21 20 19 19 18 18 17 17 17 16 16 16 16 15 15 15 15 15 14 14 13 13 13 13 13 13 13 13
29 26 24 22 21 22 25 25 24 25 26 27 26 26 25 24 24 23 23 22 21 21 20 20 19 18 17 17 17 16 16 15 15 15 15 14 14 14 14 14 14 13 13 13 12 12 12 12 12
29 28 25 25 24 25 26 26 26 27 27 27 27 26 25 25 24 23 23 22 21 21 20 20 19 18 17 17 16 16 15 15 14 14 14 14 14 13 13 13 13 13 12 12 12 12 12 12 12
30 30 30 28 27 25 25 26 27 28 28 28 27 26 26 25 25 24 23 22 22 21 20 19 18 18 17 16 16 15 15 14 14 14 13 13 13 13 13 13 12 12 12 12 11 11 11 11 12
31 30 30 28 26 24 24 25 26 26 27 28 27 27 26 26 25 24 23 23 22 21 20 19 18 17 17 16 15 15 15 14 14 13 13 13 13 13 12 12 12 12 11 11 11 11 11 11 11
30 30 29 29 28 25 23 23 27 27 28 28 28 27 27 26 26 25 24 23 22 21 20 19 18 17 17 16 15 15 14 14 13 13 13 12 12 12 12 12 12 11 11 11 11 11 11 11 11
30 30 29 27 27 27 26 25 28 28 29 28 28 28 27 26 26 25 24 23 22 21 20 19 18 18 17 16 16 15 14 14 13 13 13 12 12 12 12 12 12 11 11 11 11 11 11 11 11
Wind_Speed
11 12 10 7 6 5 8 8 6 8 9 9 9 10 17 16 11 12 15 24 26 22 21 20 18 16 14 14 14 14 13 13 13 13 12 12 12 11 11 10 9 9 10 10 10 10 10 10 9
11 12 9 7 7 5 4 7 6 6 6 6 8 12 17 16 16 17 19 24 25 22 20 19 19 17 15 14 14 14 14 13 13 13 12 12 11 11 10 9 8 9 9 9 9 9 9 9 8
13 15 8 8 12 7 5 4 2 3 2 4 8 11 11 12 15 16 20 24 23 20 20 20 19 17 16 15 15 14 14 13 13 13 12 11 10 10 9 8 8 8 8 8 8 8 8 8 7
8 9 8 10 16 9 4 2 3 2 1 4 8 10 10 10 15 19 22 24 23 21 21 20 19 18 16 15 15 14 14 13 13 12 11 11 10 9 8 8 7 7 7 7 8 7 7 7 6
11 8 12 16 18 9 6 5 6 3 2 3 10 12 11 13 19 21 21 23 22 21 20 20 19 18 16 15 14 13 13 12 12 11 10 10 9 8 8 7 6 6 7 7 7 7 7 6 5
8 10 14 16 15 5 5 3 5 4 2 4 11 15 8 13 17 19 21 20 22 22 20 19 19 17 16 15 14 13 12 12 11 10 9 8 8 7 7 6 6 6 6 7 6 6 6 5 4
11 13 17 19 16 11 5 3 4 3 4 2 9 13 11 12 16 19 18 19 21 22 20 17 17 16 15 14 13 12 11 11 10 9 8 7 7 7 7 7 6 6 6 6 6 5 5 5 5
11 11 17 17 15 12 3 3 4 1 4 1 8 10 14 12 15 18 17 18 20 20 19 16 16 15 14 13 13 12 11 10 9 8 7 7 7 8 8 9 8 7 6 6 6 5 6 6 7
10 11 14 14 12 10 6 5 6 0 2 3 9 17 17 15 15 17 16 17 17 17 16 15 15 14 14 14 14 13 12 10 10 8 8 7 7 8 10 8 10 8 7 7 7 7 7 8 10
8 11 13 11 12 12 10 8 7 7 1 8 15 18 20 15 14 15 15 16 16 15 15 13 13 10 10 10 13 11 11 11 9 8 9 7 5 3 3 10 12 10 9 8 9 9 9 10 9
9 11 12 13 12 12 10 9 6 6 3 7 10 16 19 16 14 13 13 14 13 11 12 14 12 8 6 6 8 5 7 9 8 7 6 3 1 2 2 4 8 8 9 8 8 8 8 8 7
8 10 10 11 11 10 10 8 6 5 4 5 7 9 13 14 13 13 13 13 11 9 11 12 12 7 5 5 2 3 3 4 3 5 3 2 0 2 2 2 2 4 4 4 4 5 7 6 6
10 10 9 10 9 7 7 6 3 6 10 8 8 10 12 12 11 12 12 12 10 8 10 10 9 8 5 4 2 2 2 2 3 4 4 2 1 0 1 2 2 3 3 2 2 3 3 3 5
10 10 11 11 10 8 6 4 2 5 11 10 9 10 9 10 11 12 10 10 9 9 10 9 8 8 5 4 2 2 1 2 3 3 3 2 1 0 1 1 2 3 3 2 2 3 3 3 3
10 10 10 10 9 6 4 3 3 3 9 10 8 10 9 13 12 11 9 9 9 9 10 8 7 7 5 3 1 1 0 2 2 3 4 2 2 0 1 2 2 2 4 4 3 4 4 4 5
13 11 9 8 5 5 3 3 5 2 6 9 11 10 10 11 11 11 9 9 10 9 8 6 6 7 5 3 1 0 1 2 2 3 4 3 1 1 2 2 1 2 4 3 3 3 2 3 4
11 8 5 3 3 2 2 1 5 3 3 9 13 12 10 9 11 10 10 10 10 9 8 7 6 6 5 4 2 2 2 1 1 4 4 3 1 1 2 1 1 3 2 1 3 1 1 3 4
10 7 3 2 1 1 4 5 5 5 5 9 13 12 10 9 11 11 10 11 10 8 7 7 7 6 4 4 2 1 1 1 1 3 3 2 0 1 2 2 0 2 2 1 1 2 3 3 4
10 8 5 4 3 2 3 6 6 6 7 9 12 12 12 11 11 10 10 10 10 8 8 8 7 5 3 2 1 1 1 1 1 2 4 3 1 2 3 3 1 2 2 2 2 2 4 4 4
9 6 4 3 3 2 1 4 6 5 6 8 10 11 12 12 11 9 9 9 9 9 8 7 7 6 4 3 1 0 0 2 1 2 2 2 1 1 4 1 3 3 3 3 3 2 3 5 4
7 6 5 3 2 2 1 1 4 5 7 7 8 12 12 12 12 11 10 9 10 9 8 7 6 5 3 2 1 0 1 2 1 0 1 1 1 2 3 3 3 4 4 3 3 3 4 4 4
5 6 6 2 2 1 2 2 4 6 7 9 10 11 11 11 12 11 11 10 9 9 8 7 7 5 3 2 0 2 2 2 2 1 1 1 2 3 4 3 3 3 4 5 5 3 3 4 4
4 5 8 6 4 2 4 3 3 6 8 10 10 11 11 11 12 11 10 9 9 9 9 8 7 5 4 1 1 2 3 4 4 5 4 3 3 4 5 4 1 2 3 5 5 4 4 4 5
4 4 6 6 4 3 7 4 2 6 9 11 11 12 12 11 11 11 10 9 7 7 8 9 8 6 4 1 0 1 3 4 5 6 5 4 4 3 2 1 1 1 3 4 5 5 5 4 5
3 4 3 2 1 5 7 3 4 8 9 11 13 13 13 11 10 10 9 8 7 7 7 8 9 6 4 2 1 1 2 4 6 5 4 5 5 4 5 4 3 3 3 4 5 5 6 6 6
7 6 4 5 2 3 3 4 7 9 10 11 13 13 13 13 11 10 9 8 8 8 8 8 8 5 3 2 2 0 2 3 3 5 5 5 5 5 4 4 3 4 4 6 5 5 6 6 5
7 7 8 7 4 3 1 7 10 10 11 12 13 14 13 13 12 11 11 10 9 8 7 6 7 5 3 1 1 3 3 2 3 3 5 4 4 5 6 6 5 5 6 6 6 5 6 6 6
8 8 7 6 3 1 2 1 7 10 11 13 14 14 13 12 12 12 11 10 9 8 8 6 6 5 3 2 2 1 1 2 2 3 4 4 5 5 5 6 6 6 6 6 6 6 6 7 6
6 6 5 6 5 3 0 1 6 10 10 12 13 14 13 12 11 11 10 10 9 8 8 7 6 5 4 4 2 1 1 2 3 4 5 4 4 4 5 6 6 7 7 7 6 7 8 8 7
9 7 4 5 5 5 1 3 4 7 10 10 11 13 12 11 10 11 11 10 8 8 7 7 6 5 5 4 3 2 2 2 4 5 4 4 5 5 6 6 6 7 8 7 7 8 8 8 8
Wind_Direction
200 218 224 245 248 254 302 314 11 32 57 56 46 63 73 66 81 103 119 113 115 120 125 121 116 117 120 126 132 132 131 129 126 123 121 118 115 112 110 106 102 98 94 89 86 84 84 83 83
215 223 231 246 252 259 288 293 354 24 54 69 70 70 79 76 91 110 113 114 117 123 129 122 117 115 116 119 124 128 128 127 126 125 124 122 121 119 116 112 108 103 99 97 94 90 89 89 88
240 244 255 253 256 250 231 268 25 13 69 86 79 70 71 96 106 113 120 120 119 120 119 121 120 117 116 116 119 123 126 127 127 128 127 125 124 123 122 120 117 113 109 105 103 100 98 96 94
242 237 244 260 272 275 253 322 327 9 53 121 99 87 82 93 114 122 126 120 119 122 122 124 122 120 119 118 119 122 126 127 128 129 129 129 129 130 129 128 127 125 122 118 115 113 111 108 104
243 258 254 265 272 278 310 331 317 350 321 75 96 92 91 103 118 128 127 124 128 124 124 128 125 124 123 122 122 122 125 127 129 132 134 135 136 138 137 135 131 129 129 127 125 124 124 122 120
252 258 267 272 279 275 260 295 323 325 334 87 111 110 97 116 128 134 131 134 130 126 126 128 128 128 128 128 128 129 130 132 135 139 141 142 144 144 144 143 139 134 134 133 135 136 139 142 148
263 280 281 284 287 285 277 319 303 330 300 197 125 117 128 144 140 135 136 133 128 126 129 136 136 134 135 135 137 139 141 143 146 148 152 157 163 166 167 166 162 154 150 149 152 158 161 170 181
267 284 284 283 286 289 303 296 296 272 292 74 123 124 135 147 146 138 137 129 124 127 133 139 141 142 147 149 151 153 155 156 159 162 169 177 186 193 193 188 180 174 169 170 174 182 186 192 203
263 266 276 291 307 315 341 315 311 314 240 56 82 112 131 154 147 141 141 130 126 128 134 142 140 149 158 159 159 165 168 172 174 177 188 200 212 208 204 202 177 187 188 191 195 201 204 209 217
252 267 285 311 318 316 326 315 306 296 39 81 93 114 134 152 146 147 142 133 126 127 135 135 138 148 161 154 154 174 175 173 188 179 183 204 238 256 187 172 174 188 202 206 209 212 217 222 227
267 279 300 309 313 313 312 309 297 292 34 86 110 130 138 141 142 139 132 123 119 127 126 127 125 133 137 126 157 162 152 159 180 164 171 174 279 312 29 164 178 197 212 218 206 212 230 230 231
270 285 294 297 304 304 299 296 310 45 61 86 102 127 132 142 142 137 127 123 126 130 116 119 122 124 95 89 111 129 127 144 139 140 152 121 118 354 353 326 251 218 221 214 204 212 238 255 267
278 278 285 287 288 290 294 301 311 94 106 110 134 150 140 137 134 122 116 115 126 120 112 105 110 105 94 79 23 73 75 93 105 116 117 114 172 153 315 301 307 294 281 261 235 236 256 271 279
308 315 314 307 305 298 292 286 285 120 125 133 149 138 129 111 104 105 113 118 128 126 109 106 108 110 109 101 64 13 18 84 80 100 119 148 153 123 281 279 280 286 286 266 258 258 257 266 264
302 296 299 296 301 298 329 317 321 129 124 138 133 122 115 106 103 111 121 127 126 121 113 117 122 115 109 103 93 122 168 113 122 127 128 104 95 116 288 262 252 261 260 250 236 248 257 252 255
295 282 284 299 307 322 7 322 305 231 127 130 122 110 102 105 114 121 125 125 123 122 119 121 119 115 117 114 124 133 93 118 134 127 115 89 74 99 280 262 235 250 255 244 227 220 251 274 277
277 276 272 320 324 333 63 249 264 288 144 134 119 114 111 117 118 123 126 115 115 119 120 119 107 118 131 135 149 147 118 115 122 106 98 83 22 3 315 285 285 277 279 277 291 66 277 275 271
316 334 357 322 330 51 114 176 205 197 176 140 126 126 129 134 119 118 115 111 113 120 125 125 121 126 141 136 155 146 121 157 134 109 113 122 298 357 328 268 359 310 288 279 315 309 279 267 259
324 344 358 339 320 310 137 162 176 175 174 144 134 136 142 134 126 123 121 123 128 137 140 141 136 135 141 130 145 119 94 310 203 159 152 149 201 345 303 319 334 275 285 310 302 304 295 282 265
310 328 312 268 243 264 170 151 160 179 155 131 138 143 140 133 131 134 137 144 150 148 146 144 153 157 160 122 105 119 346 294 284 64 119 140 183 295 288 317 303 310 320 289 273 270 283 294 300
305 318 308 310 78 63 2 127 151 167 143 143 158 151 149 148 148 153 156 156 156 155 159 157 147 139 137 133 204 310 231 271 304 319 147 140 295 279 301 308 298 320 311 301 309 279 268 277 295
305 323 328 12 69 269 233 239 180 176 164 172 177 160 157 158 158 162 163 162 162 159 155 141 140 134 131 142 344 326 305 318 337 348 26 25 300 282 274 269 285 305 305 309 298 311 312 289 288
323 355 2 20 48 305 227 219 179 189 185 181 174 166 164 164 160 162 158 156 158 158 152 148 139 135 133 141 47 334 335 346 357 1 353 333 294 268 259 245 241 288 289 303 315 322 304 298 293
321 2 7 11 28 286 238 213 157 199 200 180 169 168 169 164 163 158 156 153 152 152 147 142 138 138 138 145 89 22 347 344 330 322 313 319 308 294 304 300 64 301 304 316 309 304 291 281 290
267 287 310 318 283 241 219 175 160 186 187 177 169 169 166 166 163 161 159 155 155 155 143 138 140 146 154 161 131 34 349 313 290 294 323 337 322 328 28 21 18 335 319 303 293 292 285 284 282
251 256 265 291 272 228 186 141 143 158 157 164 162 164 165 166 168 169 162 160 160 158 149 142 141 145 152 163 139 259 283 288 324 11 347 321 313 328 356 344 322 303 297 295 306 303 291 281 280
279 287 297 300 316 326 117 120 130 148 150 157 162 168 171 171 170 168 161 161 161 155 144 139 135 141 154 169 169 227 231 284 325 322 293 304 335 317 345 340 319 303 293 289 289 278 282 284 280
262 293 304 309 321 17 6 115 153 164 167 170 172 176 177 176 173 167 161 164 157 150 142 142 140 151 173 216 235 259 46 312 297 294 308 304 300 302 304 298 298 296 291 283 277 277 277 280 276
250 259 289 310 324 341 85 279 161 170 178 178 179 180 182 181 176 165 161 157 154 156 153 152 156 169 184 199 186 247 268 294 300 288 281 285 293 297 291 288 287 286 282 278 275 274 272 271 270
289 269 262 280 301 298 310 129 147 177 179 177 182 179 180 179 173 163 158 152 158 163 160 162 170 184 189 184 177 203 225 264 276 284 298 303 292 283 280 279 282 281 281 281 279 278 281 279 277
Height
1504 1504 1504 1507 1503 1501 1501 1484 1466 1462 1460 1463 1465 1466 1473 1480 1487 1501 1503 1504 1505 1509 1514 1519 1523 1526 1529 1532 1535 1538 1540 1542 1544 1546 1547 1549 1550 1551 1552 1553 1554 1555 1557 1557 1558 1559 1560 1560 1561
1504 1505 1507 1504 1498 1507 1505 1483 1471 1465 1464 1464 1466 1470 1474 1483 1489 1496 1502 1505 1507 1511 1515 1519 1523 1527 1530 1533 1536 1539 1541 1543 1545 1547 1548 1550 1551 1552 1553 1555 1556 1557 1558 1558 1559 1560 1561 1562 1562
1504 1506 1506 1494 1489 1496 1494 1475 1467 1464 1464 1465 1467 1473 1479 1486 1492 1497 1502 1506 1509 1512 1516 1520 1524 1528 1531 1535 1537 1540 1542 1544 1546 1548 1549 1551 1552 1553 1554 1556 1557 1558 1559 1559 1560 1561 1562 1563 1564
1506 1506 1501 1490 1484 1474 1473 1468 1465 1463 1464 1465 1468 1477 1486 1490 1494 1498 1503 1506 1509 1513 1517 1521 1525 1529 1532 1535 1538 1541 1543 1545 1547 1549 1550 1551 1553 1554 1555 1557 1558 1558 1559 1560 1561 1562 1563 1564 1565
1507 1502 1494 1489 1477 1468 1467 1467 1465 1464 1466 1466 1470 1482 1489 1494 1496 1500 1504 1507 1511 1514 1518 1522 1526 1530 1533 1536 1539 1542 1544 1546 1548 1549 1551 1552 1553 1555 1556 1557 1558 1559 1560 1561 1562 1563 1564 1565 1566
1505 1495 1494 1488 1473 1465 1466 1466 1467 1466 1468 1469 1475 1484 1494 1497 1499 1502 1506 1509 1513 1515 1518 1523 1527 1530 1534 1537 1540 1542 1545 1547 1548 1550 1552 1553 1554 1555 1556 1558 1559 1559 1560 1561 1562 1563 1564 1565 1566
1503 1495 1490 1481 1472 1466 1463 1465 1467 1467 1470 1470 1474 1482 1492 1498 1501 1504 1508 1511 1514 1516 1519 1524 1528 1531 1535 1538 1541 1543 1545 1547 1549 1551 1552 1553 1555 1556 1557 1558 1559 1560 1561 1561 1562 1563 1564 1565 1566
1500 1495 1489 1479 1472 1466 1462 1465 1467 1470 1472 1472 1474 1481 1490 1497 1502 1506 1509 1512 1516 1518 1521 1525 1529 1532 1536 1539 1541 1544 1546 1548 1549 1551 1552 1554 1555 1556 1557 1557 1559 1560 1560 1561 1562 1563 1563 1564 1565
1497 1497 1492 1479 1473 1467 1464 1467 1469 1470 1474 1474 1476 1481 1490 1497 1502 1506 1511 1514 1518 1520 1523 1528 1531 1534 1537 1539 1541 1544 1546 1548 1549 1551 1552 1553 1555 1556 1556 1557 1558 1559 1560 1561 1561 1562 1562 1563 1564
1493 1493 1485 1476 1473 1470 1469 1470 1472 1473 1475 1478 1482 1486 1493 1499 1503 1507 1511 1515 1519 1523 1526 1529 1532 1535 1539 1541 1542 1544 1545 1547 1549 1550 1551 1553 1555 1556 1557 1556 1557 1558 1559 1560 1560 1561 1561 1562 1563
1488 1486 1481 1478 1476 1475 1474 1474 1475 1476 1480 1484 1485 1488 1492 1499 1503 1507 1511 1516 1520 1524 1527 1530 1532 1536 1540 1542 1543 1545 1546 1547 1548 1549 1551 1552 1554 1555 1556 1556 1556 1557 1557 1558 1559 1559 1560 1561 1561
1486 1483 1481 1480 1478 1478 1477 1476 1478 1480 1485 1486 1487 1491 1495 1499 1502 1507 1511 1516 1520 1524 1528 1530 1532 1535 1539 1541 1544 1545 1546 1547 1548 1548 1549 1551 1552 1553 1554 1554 1555 1556 1556 1557 1557 1558 1559 1559 1560
1482 1481 1480 1479 1478 1478 1477 1477 1481 1487 1487 1488 1492 1498 1498 1501 1504 1507 1512 1517 1521 1524 1527 1530 1532 1535 1537 1540 1542 1544 1545 1546 1547 1548 1548 1549 1550 1551 1552 1552 1552 1553 1555 1555 1555 1556 1557 1557 1557
1483 1481 1480 1479 1478 1478 1478 1478 1482 1486 1488 1492 1494 1497 1498 1500 1503 1507 1512 1517 1521 1525 1527 1530 1532 1534 1537 1539 1542 1544 1545 1546 1547 1547 1548 1548 1549 1550 1550 1550 1551 1552 1552 1553 1553 1554 1554 1555 1555
1482 1481 1482 1480 1479 1480 1481 1485 1486 1488 1489 1493 1495 1497 1500 1502 1504 1510 1514 1519 1521 1524 1527 1529 1532 1534 1536 1538 1541 1543 1544 1545 1546 1546 1547 1547 1548 1548 1549 1549 1549 1549 1550 1551 1551 1551 1552 1552 1552
1483 1483 1488 1482 1480 1483 1487 1500 1492 1490 1491 1494 1495 1499 1502 1505 1508 1512 1515 1518 1521 1524 1527 1530 1533 1534 1536 1538 1540 1542 1543 1544 1545 1546 1546 1546 1547 1547 1547 1547 1547 1548 1548 1548 1549 1549 1549 1549 1549
1484 1488 1489 1487 1482 1483 1491 1500 1492 1491 1493 1494 1496 1501 1505 1509 1511 1513 1516 1519 1521 1524 1527 1530 1533 1534 1536 1538 1540 1541 1543 1544 1545 1545 1545 1545 1546 1546 1546 1545 1546 1546 1546 1546 1546 1546 1546 1546 1546
1485 1482 1486 1490 1484 1486 1492 1499 1494 1492 1493 1495 1498 1503 1507 1509 1512 1515 1518 1520 1522 1525 1528 1531 1533 1534 1536 1538 1540 1541 1542 1543 1544 1544 1544 1544 1544 1544 1544 1544 1544 1544 1544 1544 1543 1543 1543 1543 1543
1476 1481 1488 1488 1483 1486 1490 1496 1494 1492 1494 1495 1499 1505 1508 1511 1514 1517 1519 1522 1524 1527 1529 1531 1533 1534 1536 1537 1539 1540 1541 1542 1543 1543 1542 1543 1542 1542 1542 1542 1542 1542 1542 1541 1541 1541 1541 1541 1541
1476 1483 1487 1485 1482 1486 1490 1493 1492 1492 1493 1495 1499 1504 1507 1511 1514 1517 1520 1523 1525 1527 1529 1531 1532 1534 1535 1537 1538 1539 1540 1541 1542 1542 1542 1541 1541 1540 1541 1540 1539 1539 1539 1539 1538 1538 1538 1538 1538
1479 1481 1483 1484 1483 1486 1492 1496 1494 1493 1493 1497 1500 1503 1506 1509 1513 1516 1520 1522 1525 1527 1529 1531 1532 1533 1534 1536 1537 1538 1539 1539 1540 1540 1540 1539 1538 1538 1538 1537 1536 1536 1536 1536 1536 1535 1535 1535 1535
1481 1474 1476 1482 1491 1501 1499 1510 1497 1493 1493 1496 1498 1501 1504 1507 1512 1515 1518 1521 1524 1526 1528 1529 1531 1532 1533 1535 1536 1537 1538 1538 1538 1538 1537 1536 1536 1535 1535 1534 1533 1533 1532 1533 1532 1533 1532 1532 1532
1475 1474 1479 1487 1496 1504 1501 1505 1499 1493 1494 1493 1495 1498 1502 1506 1511 1515 1517 1520 1523 1525 1527 1528 1529 1531 1532 1533 1534 1535 1535 1536 1535 1535 1534 1533 1533 1533 1532 1531 1530 1529 1529 1529 1529 1528 1528 1529 1529
1470 1476 1486 1494 1506 1517 1500 1501 1504 1495 1490 1489 1492 1497 1501 1505 1510 1514 1517 1519 1522 1524 1526 1527 1528 1530 1531 1532 1532 1532 1533 1532 1532 1532 1531 1531 1531 1530 1529 1528 1526 1526 1526 1525 1525 1525 1525 1525 1525
1473 1487 1507 1518 1524 1515 1486 1492 1496 1484 1482 1485 1489 1495 1500 1505 1508 1512 1515 1518 1521 1523 1525 1526 1527 1528 1529 1530 1530 1530 1530 1530 1530 1529 1529 1528 1528 1528 1526 1525 1524 1523 1522 1522 1521 1521 1521 1521 1521
1470 1476 1499 1510 1511 1500 1484 1489 1484 1476 1478 1483 1487 1493 1498 1503 1507 1511 1514 1517 1520 1522 1524 1525 1526 1527 1528 1528 1528 1528 1528 1528 1528 1526 1526 1525 1525 1524 1523 1522 1521 1520 1519 1519 1518 1517 1517 1517 1517
1468 1469 1464 1477 1486 1498 1492 1484 1480 1474 1478 1482 1487 1492 1496 1501 1505 1509 1512 1515 1518 1520 1522 1524 1525 1526 1527 1527 1526 1526 1525 1525 1524 1524 1523 1523 1522 1521 1520 1518 1517 1516 1516 1515 1514 1513 1513 1513 1513
1461 1462 1466 1477 1494 1509 1505 1494 1489 1481 1480 1481 1485 1490 1494 1498 1502 1506 1510 1514 1516 1519 1521 1522 1523 1524 1524 1525 1525 1525 1524 1523 1522 1521 1520 1519 1518 1517 1516 1515 1514 1513 1512 1511 1510 1510 1509 1509 1508
1464 1465 1467 1470 1476 1497 1516 1507 1477 1476 1476 1478 1482 1487 1491 1495 1499 1504 1508 1511 1514 1517 1519 1520 1521 1522 1522 1522 1522 1522 1521 1520 1519 1518 1517 1516 1515 1514 1512 1511 1510 1509 1508 1507 1507 1506 1505 1505 1504
1460 1461 1466 1481 1483 1478 1489 1496 1469 1471 1472 1476 1479 1483 1488 1493 1497 1501 1505 1509 1512 1515 1517 1518 1519 1520 1520 1520 1520 1519 1518 1517 1516 1515 1514 1513 1512 1510 1509 1508 1506 1505 1504 1504 1503 1502 1501 1500 1499